Lapse_Rate
2.7 2.9 3.2 3.3 3.2 3.3 2.6 2.3 2.5 2.4 2.3 1.7 1.5 1.4 1.4 1.6 1.3 1.5 1.8 2.7 2.7 3.0 3.0 3.3 2.9 2.5 2.5 1.7 2.5 1.8 1.6 1.9 2.3 2.1 2.3 2.1 2.6 3.5 2.7 3.0 3.2 3.4 4.5
1.9 2.5 3.1 3.1 3.1 3.3 3.3 2.6 2.4 2.6 2.4 2.2 2.3 2.0 1.6 1.3 1.3 2.2 2.5 2.7 2.8 2.8 2.5 2.4 1.6 2.0 1.7 2.0 2.9 2.2 1.8 1.4 2.7 2.4 1.4 1.7 1.8 0.8 1.5 2.3 3.1 3.6 4.2
2.2 2.3 2.1 2.6 3.1 3.1 3.3 2.8 2.4 2.5 2.3 2.3 2.0 1.5 1.1 1.0 1.0 0.6 1.2 1.2 0.8 1.1 1.8 1.9 1.4 1.7 1.2 1.3 1.6 1.4 1.8 2.0 1.9 2.4 1.2 0.2 0.7 0.5 1.1 1.2 1.7 2.4 3.9
2.4 2.4 2.5 2.3 2.9 2.8 2.7 3.0 2.8 2.5 2.3 2.0 1.6 1.7 1.4 0.9 0.9 0.6 0.6 0.2 0.1 0.0 0.2 0.5 0.9 1.8 1.7 1.4 1.6 1.4 1.5 2.1 1.7 1.6 1.0 0.4 0.8 -0.1 1.1 2.8 3.1 2.1 2.9
2.5 2.4 2.5 2.1 2.3 2.6 2.5 2.5 2.3 2.4 2.1 2.0 1.7 1.2 1.1 1.5 1.8 0.9 0.9 0.6 0.4 -0.0 -0.3 0.0 0.2 1.1 0.8 1.3 1.7 1.2 1.3 1.4 1.5 1.7 1.3 0.7 1.1 1.3 2.5 1.4 2.6 2.1 1.9
2.1 2.6 2.5 1.9 2.2 2.5 2.1 2.0 2.0 1.7 1.6 1.8 2.0 2.0 1.8 1.6 -1.7 -1.0 0.1 0.6 0.5 0.8 0.6 -0.3 -0.4 -0.1 -0.6 -1.6 -0.8 -1.3 -0.4 1.1 1.1 1.5 1.0 1.9 0.6 0.9 0.5 1.8 2.0 2.9 4.3
2.0 2.7 2.7 1.9 2.3 2.3 2.0 1.7 1.4 1.3 1.4 1.5 1.4 1.5 1.3 0.2 -2.6 -2.3 -1.6 -0.5 -0.4 -0.7 -0.8 -0.8 -0.1 -0.9 -1.1 -0.8 -2.3 -2.4 -2.6 -2.4 -0.8 0.8 1.6 1.6 1.5 1.0 0.5 0.0 0.5 1.4 2.7
1.7 2.8 2.9 2.4 2.3 1.9 2.2 1.7 0.8 0.5 0.9 0.7 0.8 0.8 0.6 -0.3 -3.5 -3.7 -3.2 -2.4 -2.6 -2.6 -2.4 -2.3 -1.8 -2.3 -2.5 -1.9 -1.6 -1.5 -1.5 -1.6 -1.2 0.3 1.0 1.4 1.1 -0.1 0.6 1.1 0.8 0.6 0.2
1.8 2.5 2.7 2.2 1.5 1.2 1.6 0.9 0.3 0.1 -0.1 0.0 -0.3 -1.0 -0.6 -1.1 -4.8 -5.1 -3.3 -3.0 -2.7 -2.6 -2.8 -3.1 -2.9 -2.9 -4.6 -4.4 -1.7 -1.5 -1.9 -2.5 -4.1 -3.5 -2.6 -1.6 -1.1 -1.2 -1.2 -0.6 0.5 1.8 2.4
2.1 2.3 2.2 1.6 0.8 0.4 0.4 -0.4 -0.6 -0.7 -0.1 -0.7 -0.9 -1.7 -2.1 -1.2 -5.7 -6.0 -3.7 -2.4 -2.2 -2.3 -3.1 -3.4 -4.9 -3.5 -6.1 -5.5 -2.2 -1.8 -0.5 -0.9 -2.4 -2.8 -3.2 -4.2 -4.0 -3.5 -2.3 -0.3 0.5 2.5 2.3
2.7 2.3 1.7 0.8 0.0 -0.4 -1.2 -1.8 -1.3 -1.0 -1.0 -1.5 -1.4 -2.2 -2.5 -2.8 -3.6 -6.5 -6.3 -2.2 -1.1 -1.6 -1.8 -2.0 -2.8 -5.9 -6.0 -6.1 -3.9 -2.3 -1.2 -2.7 -3.0 -2.3 -2.1 -2.3 -2.7 -2.6 -1.9 -1.4 -0.7 1.7 2.1
2.8 2.5 1.9 0.4 1.4 0.1 -1.1 -1.7 -1.4 -1.7 -1.6 -2.0 -2.1 -2.4 -3.0 -3.5 -5.2 -6.5 -7.0 -5.9 -4.3 -1.9 -1.7 -2.1 -2.4 -6.1 -6.7 -6.7 -5.9 -4.9 -5.2 -4.1 -2.1 -1.8 -1.6 -1.3 -1.2 -1.0 -0.9 -0.8 -0.5 0.2 1.1
2.8 2.3 1.8 0.9 1.0 -0.4 -0.9 -1.5 -1.1 -1.8 -1.5 -1.3 -1.7 -1.6 -1.5 -2.4 -3.5 -6.2 -6.9 -7.4 -7.3 -3.2 -2.8 -3.7 -5.0 -6.6 -7.1 -6.7 -6.8 -6.2 -6.4 -2.8 -1.7 -1.4 -0.7 -0.1 -0.0 0.9 -0.1 -0.5 -0.2 0.2 0.9
2.6 2.4 2.0 1.8 1.1 -0.1 0.6 -0.1 -0.1 -0.9 -1.1 -0.5 -0.7 -0.6 -0.6 -1.5 -1.9 -2.9 -3.7 -5.1 -7.1 -5.8 -5.8 -4.4 -4.4 -4.5 -5.1 -3.7 -3.8 -3.7 -2.3 -1.7 -0.7 -0.3 -0.2 0.7 0.3 0.4 1.0 1.5 2.6 2.5 2.8
2.6 2.9 2.6 2.4 1.2 1.3 1.1 0.7 1.1 0.3 0.4 0.5 0.1 0.5 0.0 -0.4 -0.1 -1.6 -2.9 -3.1 -3.9 -4.1 -4.9 -4.7 -4.4 -4.0 -2.6 -1.5 -2.1 -2.0 -1.8 -2.1 -1.4 0.1 1.3 1.7 2.2 2.8 2.5 2.1 2.5 3.9 4.3
2.6 2.7 3.1 3.2 1.6 2.4 1.9 1.6 -2.7 -2.6 -4.0 -4.4 -3.8 -0.4 0.5 -2.0 -2.8 -5.6 -5.6 -6.1 -6.5 -7.2 -3.5 -3.6 -3.5 -2.6 -0.7 -0.0 -0.1 0.1 -1.6 -2.7 -0.9 1.2 1.4 1.6 2.0 2.5 3.0 3.2 3.3 3.9 4.7
2.5 2.2 3.0 3.1 3.3 2.8 2.3 2.5 2.6 1.0 -4.8 -6.0 -5.2 -5.5 -5.5 -0.8 -5.4 -5.9 -6.0 -5.9 -6.8 -5.3 -1.3 -1.9 -1.0 -1.1 0.3 0.5 0.3 0.2 0.0 0.8 1.3 1.0 1.2 1.5 1.3 1.7 1.7 3.2 3.8 3.6 3.5
2.0 -0.4 2.6 2.7 3.4 2.9 3.1 3.0 3.4 3.6 3.3 2.7 -5.1 -6.1 -7.2 -6.8 -6.3 -6.9 -7.3 -5.5 -3.1 -3.6 -0.1 0.8 1.4 1.4 2.0 1.9 1.0 1.1 0.9 1.6 1.2 1.0 0.6 1.0 1.3 2.0 2.6 2.8 3.5 4.0 4.5
3.2 1.6 2.5 2.2 3.1 2.4 2.8 3.2 3.5 3.6 3.6 3.6 -3.4 -6.6 -9.0 -8.9 -7.1 -7.7 -5.8 -0.0 0.9 0.6 1.1 1.0 1.0 1.7 0.3 1.4 1.8 1.5 1.4 1.7 1.5 1.1 1.4 1.5 1.9 2.3 2.6 3.6 4.3 2.6 3.7
3.5 1.4 1.0 1.0 2.5 2.2 2.4 2.6 2.6 2.6 1.6 -0.4 -1.4 -2.9 -3.9 -2.6 -2.0 -1.7 -0.1 2.0 2.1 2.2 2.4 2.3 1.3 1.2 1.3 1.7 1.9 1.9 2.2 1.8 2.2 1.9 1.8 1.9 2.6 3.1 3.8 4.2 4.9 5.4 5.6
4.0 3.6 1.1 3.2 0.8 2.1 2.4 2.1 0.6 -0.8 -2.4 -2.7 -3.0 -4.7 -6.1 -0.6 -0.2 0.4 0.3 0.8 1.2 1.4 1.6 2.6 2.9 2.4 1.7 1.9 1.7 1.7 1.9 2.0 2.0 2.1 2.4 3.2 3.5 3.7 4.1 4.0 4.8 5.3 6.0
1.7 0.2 1.8 1.8 -0.1 -0.2 -0.6 -1.2 -1.8 -1.5 -1.4 -1.5 -1.5 -2.2 -4.3 0.1 0.1 -0.2 -0.5 -0.9 -0.9 -0.3 -0.1 0.0 1.9 2.3 2.3 2.4 2.4 2.4 2.5 2.8 2.8 2.8 2.9 2.9 3.6 4.2 4.4 4.9 5.6 6.1 6.5
-0.5 -0.3 -0.2 -0.5 -0.8 -2.9 -1.4 -1.1 -1.0 -0.9 -0.5 -0.2 -0.5 -0.4 0.0 0.1 0.3 0.2 -0.1 -2.1 -0.3 0.0 0.1 1.9 2.6 2.5 1.9 1.5 1.3 1.7 2.2 1.7 1.4 1.9 2.6 3.0 4.0 4.7 5.0 5.1 5.8 5.4 5.3
-0.2 -0.1 -0.1 0.1 0.2 -0.3 -0.8 -0.5 -0.6 -1.4 0.2 0.4 0.7 0.4 0.1 0.7 1.1 0.8 1.6 0.8 1.2 1.4 1.5 1.3 1.3 1.8 1.8 1.5 1.4 1.3 1.2 1.7 2.3 2.8 3.4 4.5 5.2 5.1 5.8 6.0 5.8 5.5 5.1
0.6 -0.5 -0.4 -0.0 0.8 0.5 0.5 0.7 0.4 -0.1 -0.2 0.1 1.0 2.0 2.0 2.4 1.5 -0.0 0.8 1.2 1.2 1.2 0.8 1.1 1.2 1.0 1.0 1.2 1.3 1.6 2.9 3.4 2.6 2.8 4.0 4.6 5.5 5.8 6.7 6.8 5.8 5.4 5.6
1.7 1.2 0.6 0.4 0.2 -0.5 -0.9 -0.3 0.6 0.7 1.4 1.5 2.2 1.8 1.4 1.3 1.4 1.7 1.5 1.2 1.2 1.3 1.2 1.0 1.2 1.7 1.9 1.6 1.6 2.7 2.8 3.0 3.2 3.8 3.6 4.5 5.5 6.0 6.6 5.8 5.5 5.6 5.4
Wind_Speed
3 2 2 1 3 4 5 5 4 4 4 6 6 6 6 8 8 7 6 8 7 6 5 7 6 5 4 4 3 2 3 3 7 2 1 2 2 3 5 7 8 12 16
4 3 3 3 3 4 5 5 4 6 4 6 6 8 6 6 5 8 8 6 9 9 7 8 6 5 5 4 4 4 3 3 6 6 1 2 3 3 4 8 9 11 13
5 4 4 3 3 3 3 4 5 6 5 6 8 8 7 7 8 7 8 7 7 6 6 9 9 9 6 3 3 4 3 3 3 5 3 1 2 2 4 6 6 6 8
5 5 4 4 3 3 4 3 5 5 6 6 6 7 7 7 8 7 8 8 7 7 6 6 6 5 6 6 4 4 4 5 4 4 3 2 2 1 2 4 4 2 3
6 5 5 4 3 3 4 4 4 5 5 6 7 6 5 6 5 7 6 6 7 7 6 6 6 6 7 4 4 5 6 4 4 4 3 2 3 3 4 3 3 2 2
7 6 5 5 5 4 4 5 5 5 5 5 6 6 5 3 6 8 7 5 5 5 5 4 4 6 8 10 9 12 4 6 5 4 3 4 4 3 3 4 4 3 4
8 7 6 6 6 5 5 5 5 5 4 5 5 5 5 5 7 9 8 5 5 4 4 4 4 3 5 5 9 11 9 9 5 5 5 5 5 7 6 5 5 4 4
7 8 7 6 6 6 6 6 5 4 5 4 4 4 3 2 6 7 7 5 5 5 5 5 5 4 3 5 5 5 3 3 2 3 4 5 5 9 9 6 6 4 1
8 9 9 8 7 6 6 6 4 4 4 4 3 5 5 3 6 7 7 4 4 5 4 4 5 5 6 8 5 5 4 2 4 2 4 6 12 15 15 8 5 5 4
10 10 9 9 9 8 7 7 4 4 4 4 4 4 5 5 8 9 6 3 4 3 4 5 7 6 10 9 4 4 3 2 3 2 2 5 6 12 20 8 7 6 3
11 10 9 9 9 9 7 5 5 5 4 4 5 5 6 7 7 13 12 5 4 4 4 3 4 8 9 10 8 5 4 4 3 3 3 3 4 7 10 12 12 5 6
12 11 11 9 8 7 8 5 5 6 6 5 5 5 5 6 9 11 13 12 8 5 5 2 3 9 10 10 7 7 8 5 2 3 4 5 6 7 7 12 12 13 10
13 12 11 10 9 8 8 6 4 5 4 4 4 4 5 3 5 11 11 12 11 4 0 3 6 8 8 5 9 9 7 5 4 4 6 7 6 5 7 5 11 11 12
15 13 11 11 10 7 6 6 6 6 5 5 5 7 6 4 5 5 6 4 5 6 2 2 3 3 5 4 4 6 6 6 6 8 8 7 5 4 7 6 7 7 6
15 13 12 11 12 10 9 9 9 9 10 9 10 10 7 8 10 6 8 6 6 7 5 3 3 3 3 5 5 6 5 5 7 7 7 7 8 8 8 6 8 7 9
16 13 12 11 9 9 9 8 11 11 17 18 4 9 6 9 9 12 16 13 13 15 3 3 3 4 5 5 5 5 5 6 6 7 8 8 9 9 9 7 8 9 11
18 17 13 12 10 11 9 10 10 11 13 12 15 12 11 10 6 7 13 12 9 11 3 3 4 4 4 5 4 3 5 3 5 6 7 7 6 7 7 8 8 8 10
17 17 14 14 13 11 11 11 10 10 9 9 2 6 11 6 7 10 13 12 4 4 3 3 3 3 2 3 2 4 2 3 4 5 5 6 6 7 7 8 8 9 10
16 11 14 13 13 13 12 12 11 10 9 8 3 5 8 9 7 7 4 2 1 1 3 3 2 3 2 1 2 3 3 5 4 4 4 5 6 6 7 8 8 9 9
16 19 14 10 11 11 10 10 10 9 4 4 4 3 3 3 5 5 4 2 4 5 3 1 3 2 2 2 1 1 3 3 4 4 5 5 6 6 8 8 8 9 7
11 10 13 9 9 10 10 9 5 5 7 6 6 3 6 10 8 7 7 7 6 6 6 5 3 4 4 4 4 3 2 3 4 5 4 5 5 5 6 6 7 7 7
7 7 8 7 7 8 7 7 8 10 10 11 9 7 6 9 8 8 9 8 6 4 4 5 4 5 5 5 4 5 6 7 7 6 6 6 6 5 5 5 5 4 3
10 10 8 7 9 11 11 10 11 12 11 11 10 8 8 8 9 9 5 11 6 4 10 6 5 5 11 13 12 10 6 5 5 8 6 6 6 5 5 4 4 3 4
12 12 13 11 11 12 13 13 12 12 11 10 8 9 10 7 7 9 7 9 6 9 11 12 12 11 11 12 11 12 12 12 10 9 9 6 5 5 5 5 6 6 4
10 14 14 14 13 12 11 11 11 12 11 12 10 7 9 8 9 10 8 8 9 10 11 11 10 13 15 15 14 13 15 15 14 13 9 9 7 6 5 5 4 4 5
12 14 11 10 9 9 12 12 11 12 12 10 10 10 10 10 9 9 8 8 7 8 10 11 14 15 14 13 15 16 16 14 13 13 9 8 5 5 4 4 6 5 5
Wind_Direction
187 157 144 61 67 56 66 64 74 65 62 89 100 83 92 117 124 128 122 129 124 113 100 117 110 124 125 110 111 101 99 90 121 111 92 51 72 123 103 114 132 133 143
181 150 143 109 74 70 70 69 68 89 58 78 82 85 78 75 87 112 112 115 120 120 121 116 115 100 116 143 141 130 142 134 132 129 99 75 78 71 104 97 103 121 134
165 151 145 126 110 100 78 61 69 90 72 62 84 86 87 86 83 68 82 79 81 93 120 134 142 142 144 144 144 130 117 116 101 138 132 135 101 64 77 80 99 96 108
164 158 159 164 170 135 112 85 88 96 99 79 66 83 87 88 87 85 89 87 82 77 82 93 105 107 132 133 129 146 132 127 112 121 106 106 100 80 101 149 140 99 124
163 170 184 160 145 118 114 110 100 92 104 110 101 72 74 93 109 108 97 96 96 85 65 65 65 84 103 131 136 150 146 135 139 137 122 128 160 172 186 158 162 155 172
164 181 167 154 142 128 119 123 115 105 97 110 110 119 113 97 111 97 109 107 98 102 105 83 73 73 66 56 72 81 96 149 153 151 162 188 188 187 165 177 147 170 213
164 162 165 160 147 146 137 129 131 138 132 132 130 134 138 141 134 124 126 128 131 121 117 105 82 62 76 91 86 90 83 92 160 156 170 195 183 196 157 177 192 188 201
163 161 157 161 155 153 152 154 147 143 152 145 146 145 143 157 152 149 128 124 118 128 141 144 134 133 129 134 125 114 111 83 103 178 195 198 213 182 184 179 174 163 124
170 170 167 164 155 157 165 164 150 139 155 177 182 171 176 193 175 162 143 136 137 151 157 165 166 165 173 156 135 142 149 154 54 63 241 238 208 194 171 141 166 170 203
176 182 171 166 163 169 172 170 160 165 178 167 174 194 196 198 184 192 169 153 161 185 197 197 195 176 170 174 153 163 180 213 183 172 119 90 139 175 180 195 167 192 180
177 170 169 171 174 175 163 159 163 170 161 186 204 206 210 202 199 198 199 182 190 194 211 208 204 188 179 189 183 180 196 162 184 199 197 190 194 197 207 217 206 194 191
170 170 175 173 178 170 168 168 169 167 182 197 207 233 222 216 213 204 205 215 184 205 219 180 198 191 198 199 192 208 189 164 181 224 244 240 231 226 226 223 228 229 236
170 173 177 176 179 168 170 172 167 178 189 208 214 236 253 227 231 218 215 216 218 229 241 168 178 202 208 202 222 217 189 210 217 226 238 244 232 237 238 241 243 242 249
176 178 176 176 179 171 182 180 184 186 200 213 218 236 245 251 246 227 227 220 205 210 150 147 207 200 213 225 227 226 231 223 222 233 241 251 244 226 233 218 233 223 231
177 181 182 184 182 183 191 186 194 211 202 203 219 219 213 232 240 192 186 202 201 201 150 185 205 200 223 241 240 236 232 228 232 242 258 259 257 248 241 215 225 223 230
182 182 188 187 183 187 191 203 232 232 209 219 208 201 222 232 184 190 197 193 186 155 174 211 214 213 238 254 269 263 223 200 245 249 247 250 254 254 255 237 232 230 238
191 185 184 186 186 189 190 198 213 234 231 227 232 219 223 233 221 177 182 188 147 146 218 201 220 200 234 231 232 244 257 244 241 243 258 260 260 262 256 257 255 248 249
193 187 187 188 190 189 195 201 208 215 221 236 210 230 235 196 175 167 132 113 125 259 219 245 244 212 209 256 278 276 336 298 265 256 251 258 264 265 268 263 259 256 254
186 191 193 191 191 192 196 200 205 213 218 234 110 71 57 89 82 99 107 35 163 154 234 256 222 276 99 324 327 330 295 276 296 303 285 274 269 262 265 266 268 262 264
192 191 189 187 192 190 191 195 201 205 178 106 100 111 135 132 85 89 66 52 55 58 42 7 30 38 32 43 4 295 324 330 320 301 302 297 290 273 277 284 282 278 266
191 186 186 181 181 193 194 194 177 129 103 92 91 70 93 100 95 105 95 67 60 54 59 6 28 49 62 56 48 45 22 5 11 356 339 318 306 300 293 290 288 273 272
159 154 174 170 135 127 122 113 108 108 110 108 102 88 53 94 96 93 91 76 73 66 80 78 42 48 56 65 58 51 40 27 10 355 347 346 338 326 316 303 299 290 293
119 119 113 107 109 111 102 108 113 116 118 114 115 107 96 99 103 85 84 100 108 103 85 100 90 78 64 60 55 51 50 32 12 11 4 1 2 360 353 339 338 334 311
124 123 120 119 120 116 115 112 109 105 108 109 109 106 103 87 108 113 124 91 90 82 88 86 74 73 66 57 50 44 39 33 31 24 24 20 26 23 22 5 353 343 322
127 122 124 121 116 115 111 115 118 115 115 113 108 110 95 123 109 87 91 93 92 85 76 77 73 62 53 47 42 40 38 38 34 27 20 23 18 4 4 6 349 329 324
125 121 115 105 113 118 114 115 123 120 124 107 119 124 119 110 101 106 103 102 98 93 93 77 70 69 65 54 51 51 46 41 34 28 25 13 1 357 353 357 337 318 310